Overview Statistics Trail Chart Weather Telemetry Raw packets
 

This is the latest recevied weather packets stored in our database for station/object N7WSS. If no packets are shown the sender has not sent any weather packets the latest 10 day(s).

<< 50 51 52 53 54 55 56 >>
Time Temp. Humidity Pressure Rain* Wind** Luminosity Snow
1788291771 32.78° C 39% 1015.5 hPa 0 mm - - -
1788291468 32.78° C 41% 1015.9 hPa 0 mm - - -
1788291166 32.78° C 41% 1015.9 hPa 0 mm - - -
1788290861 32.78° C 41% 1015.9 hPa 0 mm - - -
1788290557 32.22° C 42% 1016 hPa 0 mm - - -
1788290252 31.67° C 43% 1015.9 hPa 0 mm - - -
1788289948 32.22° C 41% 1016 hPa 0 mm - - -
1788289644 31.67° C 42% 1016 hPa 0 mm - - -
1788289344 31.67° C 41% 1016.1 hPa 0 mm - - -
1788289042 31.67° C 41% 1016 hPa 0 mm - - -
1788288741 31.67° C 43% 1015.9 hPa 0 mm - - -
1788288437 31.11° C 42% 1016.1 hPa 0 mm - - -
1788288132 31.11° C 43% 1016.2 hPa 0 mm - - -
1788287828 31.11° C 42% 1016.2 hPa 0 mm - - -
1788287527 31.67° C 43% 1016.4 hPa 0 mm - - -
1788287224 31.67° C 43% 1016.3 hPa 0 mm - - -
1788286923 32.22° C 42% 1016.1 hPa 0 mm - - -
1788286618 31.67° C 41% 1016.5 hPa 0 mm - - -
1788286318 31.11° C 43% 1016.2 hPa 0 mm - - -
1788286018 31.67° C 41% 1016.5 hPa 0 mm - - -
1788285717 31.11° C 42% 1016.4 hPa 0 mm - - -
1788285417 31.11° C 43% 1016.6 hPa 0 mm - - -
1788285116 31.11° C 42% 1016.4 hPa 0 mm - - -
1788284812 30.56° C 44% 1016.5 hPa 0 mm - - -
1788284508 31.67° C 44% 1016.3 hPa 0 mm - - -

* Rain latest hour (hover to see other rain measurements)
** Current wind speed in m/s (hover to see current wind gust speed)